Starlink 11254

operational
NORAD ID: 60731 Int'l Des: 2024-152 Owner: SPXS Country: US Constellation: starlink
LEOCIRCULAR

关于 Starlink 11254

正在加载描述...

实时位置

正在加载3D地球...

即将过境

高度历史

Altitude vs Time

uPlot chart will show altitude changes over time

两行轨道根数

1 60731U 24152M 25306.50641193 .00003630 00000-0 34798-4 0 9993
2 60731 53.1584 22.9193 0000957 75.3322 284.7801 15.69714704 68877
Epoch: Nov 2, 2025 • Age: 23 hours

当前状态

高度 362.9 km
速度 7.70 km/s
星下点 40.82°N, 154.34°W
发射日期 Aug 28, 2024
运行时间 1.1 years
类型 internet

技术详情

分类 Payload
质量 960.00 kg
干质量 910.00 kg
总质量 960.00 kg
长度 0.30 m
直径 4.10 m
跨度 29.00 m
形状 Box + pan
制造商 SPXS
平台类型 Starlink V2MD
阶段状态 In Orbit
所有者/国家 SPXS/US

大型星座

Loading constellations...